Hourly Weather Roundup
Issued by NWS Central Illinois

Home | Current Version | Previous Version | Text Only | Print | Product List | Glossary On
Versions: 1 2 3 4 5 6 7 8 9 10 11 12 13 14 15 16 17 18 19 20 21 22 23 24 25 26 27 28 29 30 31 32 33 34 35 36 37 38 39 40 41 42 43 44 45 46 47 48 49 50
000
NZUS43 KILX 300210
HWRILX

AREA WEATHER ROUNDUP
NATIONAL WEATHER SERVICE, LINCOLN IL
900 PM CDT SAT AUG 29 2015


CITY           SKY/WX    TMP DP  RH WIND       PRES   REMARKS
BLOOMINGTON    CLOUDY    74  71  90 S5        30.04R
CHAMPAIGN      CLOUDY    72  67  84 S5        30.03R
DANVILLE       LGT RAIN  71  69  93 SW5       30.01R
DECATUR        CLOUDY    75  66  73 S8        30.03R
EFFINGHAM      CLOUDY    70  67  89 CALM      30.06R
FLORA          CLOUDY    71  67  89 CALM      30.05R
GALESBURG      MOCLDY    69  67  92 N8        30.03R
JACKSONVILLE   CLOUDY    76  71  84 CALM      30.02R
LACON          CLOUDY    71  67  89 CALM      30.02R
LAWRENCEVILLE  CLOUDY    73  70  90 CALM      30.04R
LITCHFIELD     PTCLDY    70  65  84 SE5       30.02S
$$


CITY           SKY/WX    TMP DP  RH WIND       PRES   REMARKS
LINCOLN        MOCLDY    75  68  77 CALM      30.01R
MACOMB         MOCLDY    72  69  91 CALM      30.03S
MATTOON        HAZE      73  67  81 CALM      30.03R VSB 1/4
MT CARMEL AP   CLOUDY    70  70 100 CALM      30.04R FOG
OLNEY-NOBLE AP CLOUDY    70  68  94 CALM      30.05R
PARIS          CLOUDY    71  68  90 SW5       30.05R
PEORIA         CLOUDY    76  68  76 NE6       30.02R
PONTIAC        CLOUDY    73  70  91 N3        30.03R
RANTOUL        CLOUDY    73  69  88 SW5       30.02R
ROBINSON       CLOUDY    71  68  91 CALM      30.06R
SPRINGFIELD    CLOUDY    75  68  78 S5        30.01R
TAYLORVILLE    MOCLDY    72  68  88 CALM      30.02R
$$

...REGIONAL REPORTS...


CITY           SKY/WX    TMP DP  RH WIND       PRES   REMARKS
CHICAGO O`HARE LGT RAIN  67  65  93 N7        30.03R FOG
KANKAKEE       CLOUDY    71  70  98 CALM      30.02R FOG
MOLINE         CLEAR     67  64  90 CALM      30.03R
MOUNT STERLING CLOUDY    72  70  93 CALM      30.01R
MOUNT VERNON   CLOUDY    72  66  83 CALM      30.05R
PITTSFIELD     CLOUDY    76  70  82 CALM      30.03R
QUINCY         CLOUDY    75  69  81 CALM      30.01R
ROCKFORD       DRIZZLE   68  64  87 NE7       30.06R
$$


CITY           SKY/WX    TMP DP  RH WIND       PRES   REMARKS
BURLINGTON     CLOUDY    73  70  90 NE8       30.02R
CEDAR RAPIDS   MOCLDY    68  66  93 N6        30.04R
DES MOINES     CLOUDY    70  64  81 NE5       30.04R
KIRKSVILLE     CLEAR     70  66  87 N6        30.03R
OTTUMWA        PTCLDY    68  67  96 NE6       30.02R
ST LOUIS       CLOUDY    80  66  62 S6        30.02R HX  82
$$


CITY           SKY/WX    TMP DP  RH WIND       PRES   REMARKS
TERRE HAUTE    CLOUDY    73  66  78 CALM      30.04R
EVANSVILLE     MOCLDY    75  70  84 CALM      30.04R
INDIANAPOLIS   CLOUDY    75  67  76 S5        30.04R
LAFAYETTE      CLOUDY    72  69  90 SE3       30.03R
MADISON        CLOUDY    65  62  90 CALM      30.06R
MILWAUKEE      DRZL/FOG  62  61  96 N7        30.04S VSB 1/2
$$





USA.gov is the U.S. government's official web portal to all federal, state and local government web resources and services.